McAlester, OK

4:25 PM CST on November 14, 2019 (GMT -0600)
McAlester Regional

Weather History for KMLC - August, 2019

Change the Weather History Date:

Thursday, August 1, 2019

  Actual Average Record
Temperature  
Mean Temperature 82 °F -  
Max Temperature 91 °F 93 °F 108 °F (2011)
Min Temperature 75 °F 70 °F 60 °F (2018)
Cooling Degree Days 18    
Growing Degree Days 32 (Base 50)    
Moisture  
Dew Point 72 °F    
Average Humidity 73    
Maximum Humidity 88    
Minimum Humidity 52    
Precipitation  
Precipitation 0.00 in - - ()
Sea Level Pressure  
Sea Level Pressure 30.02 in    
Wind  
Wind Speed 4 mph (SE)    
Max Wind Speed 9 mph    
Max Gust Speed -    
Visibility 10 miles    
Events      
Averages and records for this station are not official NWS values.
T = Trace of Precipitation, MM = Missing Value Source: NWS Daily Summary

Daily Weather History Graph

Daily Weather History Graph

Search for Another Location

Airport or City:

Astronomy

Aug. 01, 2019 Rise Set
Actual Time 6:32 AM CDT 8:25 PM CDT
Civil Twilight 6:04 AM CDT 8:53 PM CDT
Nautical Twilight 5:31 AM CDT 9:27 PM CDT
Astronomical Twilight 4:55 AM CDT 10:02 PM CDT
Moon 6:59 AM CDT (8/1) 9:14 PM CDT (8/1)
Length of Visible Light 14h 48m
Length of Day
13h 53m
New Moon, 1% of the Moon is Illuminated
Aug 1
New Moon
Aug 7
First Quarter
Aug 15
Full
Aug 23
Last Quarter
Aug 30
New

Hourly Weather History & Observations

Time (CDT) Temp. Heat Index Dew Point Humidity Pressure Visibility Wind Dir Wind Speed Gust Speed Precip Events Conditions
12:53 AM 78.1 °F - 71.1 °F 79% 30.02 in 10.0 mi SE 4.6 mph - N/A   Clear
1:53 AM 79.0 °F - 70.0 °F 74% 30.00 in 10.0 mi SE 6.9 mph - N/A   Mostly Cloudy
2:53 AM 78.1 °F - 70.0 °F 76% 29.99 in 10.0 mi South 3.5 mph - N/A   Scattered Clouds
3:53 AM 75.9 °F - 70.0 °F 82% 30.00 in 10.0 mi Calm Calm - N/A   Partly Cloudy
4:53 AM 75.0 °F - 70.0 °F 84% 30.00 in 10.0 mi SE 3.5 mph - N/A   Clear
5:53 AM 75.0 °F - 70.0 °F 84% 30.02 in 10.0 mi East 3.5 mph - N/A   Clear
6:53 AM 75.0 °F - 70.0 °F 84% 30.03 in 10.0 mi SE 3.5 mph - N/A   Clear
7:53 AM 75.9 °F - 71.1 °F 85% 30.05 in 10.0 mi Calm Calm - N/A   Clear
8:53 AM 79.0 °F - 72.0 °F 79% 30.07 in 10.0 mi Calm Calm - N/A   Clear
9:53 AM 80.1 °F 83.8 °F 72.0 °F 76% 30.09 in 10.0 mi Variable 3.5 mph - N/A   Clear
10:53 AM 82.0 °F 86.7 °F 72.0 °F 71% 30.11 in 10.0 mi Variable 4.6 mph - N/A   Clear
11:53 AM 82.9 °F 88.8 °F 73.0 °F 72% 30.09 in 10.0 mi East 4.6 mph - N/A   Clear
12:53 PM 86.0 °F 93.8 °F 73.9 °F 67% 30.08 in 10.0 mi SE 6.9 mph - N/A   Clear
1:53 PM 86.0 °F 92.2 °F 72.0 °F 63% 30.05 in 10.0 mi Variable 6.9 mph - N/A   Clear
2:53 PM 90.0 °F 96.9 °F 72.0 °F 55% 30.03 in 10.0 mi SSE 9.2 mph - N/A   Clear
3:53 PM 90.0 °F 96.9 °F 72.0 °F 55% 30.01 in 10.0 mi SE 8.1 mph - N/A   Clear
4:53 PM 90.0 °F 95.4 °F 70.0 °F 52% 30.00 in 10.0 mi SSE 8.1 mph - N/A   Clear
5:53 PM 90.0 °F 95.4 °F 70.0 °F 52% 29.97 in 10.0 mi SE 4.6 mph - N/A   Clear
6:53 PM 88.0 °F 95.6 °F 73.0 °F 61% 29.96 in 10.0 mi ESE 5.8 mph - N/A   Clear
7:53 PM 84.9 °F 91.4 °F 73.0 °F 67% 29.97 in 10.0 mi Variable 4.6 mph - N/A   Clear
8:53 PM 81.0 °F 86.2 °F 73.9 °F 79% 29.98 in 10.0 mi ESE 4.6 mph - N/A   Clear
9:53 PM 80.1 °F 84.2 °F 73.0 °F 79% 30.00 in 10.0 mi ESE 3.5 mph - N/A   Clear
10:53 PM 78.1 °F - 73.0 °F 84% 30.01 in 10.0 mi ESE 4.6 mph - N/A   Clear
11:53 PM 77.0 °F - 73.0 °F 88% 30.02 in 10.0 mi ESE 4.6 mph - N/A   Clear